Berlin, NH

2:17 PM EDT on July 22, 2017 (GMT -0400)
Berlin Municipal

Weather History for KBML - December, 1998

Change the Weather History Date:

Friday, December 4, 1998

  Actual Average Record
Temperature  
Mean Temperature 44 °F -  
Max Temperature 55 °F 32 °F 55 °F (1998)
Min Temperature 32 °F 15 °F 0 °F (2002)
Degree Days  
Heating Degree Days 20    
Moisture  
Dew Point 34 °F    
Average Humidity 70    
Maximum Humidity 100    
Minimum Humidity 45    
Precipitation  
Precipitation 0.01 in - - ()
Sea Level Pressure  
Sea Level Pressure 29.80 in    
Wind  
Wind Speed 5 mph (WNW)    
Max Wind Speed 17 mph    
Max Gust Speed 32 mph    
Visibility 9 miles    
Events      
Averages and records for this station are not official NWS values.
T = Trace of Precipitation, MM = Missing Value Source: NWS Daily Summary

Daily Weather History Graph

Daily Weather History Graph

Search for Another Location

Airport or City:

Trip Planner

Search our weather history database for the weather conditions in past years. The results will help you decide how hot, cold, wet, or windy it might be!

Date:

Astronomy

Dec. 04, 1998 Rise Set
Actual Time 7:04 AM EST 4:05 PM EST
Civil Twilight 6:31 AM EST 4:38 PM EST
Nautical Twilight 5:54 AM EST 5:14 PM EST
Astronomical Twilight 5:19 AM EST 5:49 PM EST
Moon 5:32 PM EST (12/4) 7:47 AM EST (12/4)
Length of Visible Light 10h 06m
Length of Day
9h 00m
Full, 98% of the Moon is Illuminated
Dec 4
Full
Dec 10
Last Quarter
Dec 18
New
Dec 26
First Quarter
Jan 1
Full

Hourly Weather History & Observations

Time (EST) Temp. Windchill Dew Point Humidity Pressure Visibility Wind Dir Wind Speed Gust Speed Precip Events Conditions
12:52 AM 39.0 °F - 37.9 °F 96% 29.77 in 8.0 mi Calm Calm - 0.00 in   Overcast
1:13 AM 39.2 °F - 37.4 °F 93% 29.74 in 5.0 mi Calm Calm - N/A   Overcast
1:52 AM 39.0 °F - 37.9 °F 96% 29.74 in 6.0 mi Calm Calm - 0.00 in   Overcast
2:52 AM 39.9 °F - 39.0 °F 97% 29.75 in 6.0 mi Calm Calm - 0.01 in   Overcast
3:29 AM 39.2 °F - 39.2 °F 100% 29.70 in 5.0 mi Calm Calm - N/A   Overcast
3:52 AM 39.9 °F - 39.0 °F 97% 29.73 in 7.0 mi Calm Calm - N/A   Overcast
4:09 AM 39.2 °F - 39.2 °F 100% 29.70 in 5.0 mi Calm Calm - N/A   Overcast
4:52 AM 39.9 °F - 39.0 °F 97% 29.73 in 6.0 mi Calm Calm - N/A   Overcast
5:52 AM 48.0 °F - 43.0 °F 83% 29.73 in 9.0 mi Variable 4.6 mph - N/A   Overcast
6:52 AM 50.0 °F - 43.0 °F 77% 29.73 in 10.0 mi West 9.2 mph - N/A   Mostly Cloudy
7:52 AM 52.0 °F - 42.1 °F 69% 29.71 in 10.0 mi West 9.2 mph 17.3 mph N/A   Scattered Clouds
8:52 AM 52.0 °F - 43.0 °F 71% 29.73 in 10.0 mi WNW 11.5 mph 17.3 mph N/A   Mostly Cloudy
9:52 AM 54.0 °F - 39.9 °F 59% 29.72 in 10.0 mi West 10.4 mph 27.6 mph N/A   Partly Cloudy
10:52 AM 55.0 °F - 37.9 °F 53% 29.71 in 10.0 mi West 17.3 mph 23.0 mph N/A   Mostly Cloudy
11:52 AM 52.0 °F - 33.1 °F 49% 29.71 in 10.0 mi NW 17.3 mph 29.9 mph N/A   Partly Cloudy
12:52 PM 53.1 °F - 32.0 °F 45% 29.72 in 10.0 mi WNW 16.1 mph 31.1 mph N/A   Mostly Cloudy
1:52 PM 51.1 °F - 30.9 °F 46% 29.74 in 10.0 mi NNW 17.3 mph 32.2 mph N/A   Clear
2:37 PM 48.2 °F - 30.2 °F 50% 29.74 in 10.0 mi WNW 13.8 mph 25.3 mph N/A   Partly Cloudy
2:52 PM 48.9 °F - 30.0 °F 48% 29.78 in 10.0 mi WNW 16.1 mph 26.5 mph N/A   Partly Cloudy
3:52 PM 46.0 °F 39.6 °F 30.9 °F 56% 29.81 in 10.0 mi WNW 15.0 mph 23.0 mph N/A   Scattered Clouds
4:52 PM 45.0 °F 38.9 °F 30.0 °F 56% 29.86 in 10.0 mi WNW 12.7 mph 28.8 mph N/A   Mostly Cloudy
5:52 PM 42.1 °F 36.1 °F 27.0 °F 55% 29.91 in 10.0 mi NNW 10.4 mph 32.2 mph N/A   Mostly Cloudy
6:52 PM 41.0 °F 35.2 °F 26.1 °F 55% 29.94 in 10.0 mi NW 9.2 mph 18.4 mph N/A   Overcast
7:52 PM 39.9 °F 35.1 °F 26.1 °F 58% 29.96 in 10.0 mi Variable 6.9 mph 16.1 mph N/A   Overcast
8:52 PM 37.9 °F 32.1 °F 25.0 °F 60% 29.99 in 10.0 mi NNW 8.1 mph - N/A   Overcast
9:52 PM 36.0 °F 30.3 °F 24.1 °F 62% 30.01 in 10.0 mi Variable 6.9 mph - N/A   Scattered Clouds
10:52 PM 34.0 °F 29.8 °F 24.1 °F 67% 30.03 in 10.0 mi Variable 4.6 mph - N/A   Scattered Clouds
11:52 PM 32.0 °F 28.7 °F 23.0 °F 69% 30.05 in 10.0 mi Variable 3.5 mph - N/A   Mostly Cloudy